Content
SEND FEEDBACK

Daily
Averages
Monthly
Summary
Bosnia and Herzegovina

ILIDZA, BOSNIA AND HERZEGOVINA


Home > Europe > Bosnia and Herzegovina
Elevation: 1677 feet     Latitude: 43 49N     Longitude: 018 19E

WEATHER
 
SELECT A DAY
Number of Records: 181,256;   Date Range: 2/20/97 - 9/30/14
 
SHARE

PRINT THIS DATA

[ ← Previous Day ]
WEATHER ALMANAC - SEPTEMBER 2, 2014
[ Next Day → ]
[ °C ]   °F
Weather ElementAverageHighLow
Temperature61.1 °F64.4 °F (8:00 am)59 °F (3:00 am)
Dewpoint59.1 °F60.8 °F (12:00 am)57.2 °F (3:00 am)
Humidity93.4 %100 % (3:00 am)88 % (9:00 am)
Barometer29.82 in29.86 in (7:00 pm)29.77 in (5:00 am)
Wind Speed5.4 mph9.2 mph (2:30 pm)
Weather ElementAverage
Visibility4.9 mi
Wind DirectionWSW (239 °)

Weather ElementTotal
Precipitation---
Heating Degree Days3.3 (Base 65)
Growing Degree Days11.7 (Base 50)
Averaged from 42 records on September 2, 2014
WEATHER CONDITIONS BREAKOUT
WIND DIRECTION BREAKOUT
WEATHER BY HOUR - SEPTEMBER 2, 2014
[ °C ]   °F
Local TimeTemperatureDewpointHumidityBarometerVisibilityWind DirectionWind SpeedGust SpeedPrecipitationEventsConditions
12:00 AM60.8 °F60.8 °F100 %29.80 in6.2 miNNW (330°)3.5 mphMostly Cloudy
1:00 AM60.8 °F59.0 °F94 %29.80 in6.2 miVariable2.3 mphMostly Cloudy
2:00 AM60.8 °F59.0 °F94 %29.77 in6.2 miVariable2.3 mphMostly Cloudy
3:00 AM60.8 °F59.0 °F94 %29.80 in6.2 miWest (260°)3.5 mphMostly Cloudy
4:00 AM60.8 °F59.0 °F94 %29.80 in6.2 miVariable2.3 mphMostly Cloudy
5:00 AM60.8 °F59.0 °F94 %29.77 in5.0 miNW (310°)4.6 mphMostly Cloudy
5:30 AM60.8 °F59.0 °F94 %29.77 in5.0 miNW (310°)4.6 mphMostly Cloudy
6:00 AM60.8 °F59.0 °F94 %29.77 in5.0 miWNW (300°)4.6 mphMostly Cloudy
6:30 AM60.8 °F59.0 °F94 %29.77 in5.0 miVariable2.3 mphMostly Cloudy
7:00 AM60.8 °F59.0 °F94 %29.77 in5.0 miVariable2.3 mphMostly Cloudy
7:30 AM60.8 °F59.0 °F94 %29.80 in5.0 miVariable2.3 mphMostly Cloudy
8:00 AM60.8 °F59.0 °F94 %29.80 in4.3 miWNW (290°)3.5 mphRainLight Rain
8:30 AM60.8 °F59.0 °F94 %29.80 in3.7 miWest (280°)4.6 mphRainLight Rain
9:00 AM60.8 °F59.0 °F94 %29.80 in3.7 miWest (270°)5.8 mphRainLight Rain
9:30 AM60.8 °F59.0 °F94 %29.80 in4.3 miWest (280°)4.6 mphDrizzle
10:00 AM60.8 °F59.0 °F94 %29.80 in5.0 miWest (280°)5.8 mphLight Drizzle
10:30 AM60.8 °F59.0 °F94 %29.80 in6.2 miWest (270°)6.9 mphMostly Cloudy
11:00 AM60.8 °F59.0 °F94 %29.80 in4.3 miWest (270°)6.9 mphRainLight Rain Showers
11:30 AM60.8 °F59.0 °F94 %29.80 in4.3 miWSW (240°)3.5 mphRainLight Rain
12:00 PM62.6 °F59.0 °F88 %29.83 in4.3 miWest (270°)5.8 mphRainLight Rain
12:30 PM62.6 °F60.8 °F94 %29.83 in5.0 miWest (280°)6.9 mphRainLight Rain
1:00 PM62.6 °F60.8 °F94 %29.80 in6.2 miWest (270°)6.9 mphMostly Cloudy
1:30 PM62.6 °F59.0 °F88 %29.83 in6.2 miWest (280°)6.9 mphMostly Cloudy
2:00 PM64.4 °F60.8 °F88 %29.83 in6.2 miWest (270°)6.9 mphMostly Cloudy
2:30 PM64.4 °F60.8 °F88 %29.83 in6.2 miWest (270°)9.2 mphMostly Cloudy
3:00 PM62.6 °F59.0 °F88 %29.83 in6.2 miWNW (290°)8.1 mphMostly Cloudy
3:30 PM62.6 °F59.0 °F88 %29.83 in5.0 miWest (280°)6.9 mphRainLight Rain
4:00 PM60.8 °F59.0 °F94 %29.83 in4.3 miWest (270°)8.1 mphRainRain
4:30 PM60.8 °F59.0 °F94 %29.83 in3.7 miWest (280°)6.9 mphRainRain
5:00 PM60.8 °F59.0 °F94 %29.83 in4.3 miWest (260°)6.9 mphRainLight Rain
5:30 PM60.8 °F59.0 °F94 %29.83 in4.3 miWest (280°)4.6 mphRainLight Rain
6:00 PM60.8 °F59.0 °F94 %29.83 in4.3 miWest (280°)8.1 mphRainRain
6:30 PM60.8 °F59.0 °F94 %29.83 in4.3 miWest (280°)5.8 mphRainRain
7:00 PM60.8 °F59.0 °F94 %29.83 in4.3 miWest (270°)5.8 mphRainLight Rain
7:30 PM60.8 °F59.0 °F94 %29.83 in3.7 miWest (280°)5.8 mphRainLight Rain
8:00 PM60.8 °F59.0 °F94 %29.86 in3.7 miWest (260°)4.6 mphRainRain
8:30 PM60.8 °F59.0 °F94 %29.86 in5.0 miWest (280°)6.9 mphRainLight Rain
9:00 PM60.8 °F59.0 °F94 %29.86 in5.0 miWest (270°)5.8 mphRainLight Rain
9:30 PM59.0 °F57.2 °F94 %29.86 in3.7 miWNW (290°)5.8 mphRainRain
10:00 PM59.0 °F59.0 °F100 %29.86 in4.3 miWest (280°)4.6 mphRainLight Rain
10:30 PM59.0 °F57.2 °F94 %29.86 in3.7 miWest (270°)5.8 mphRainRain
11:00 PM59.0 °F57.2 °F94 %29.86 in3.7 miWNW (290°)5.8 mphRainRain
Hourly data recorded from LQSA, located miles away from Ilidza, Bosnia and Herzegovina







STORIES FROM OUR PARTNERS